Location: Muenchen
(48.1800°N, 11.5800°E)
Time: 11:41:29
(UTC+02:00)

Iridium 36 - Visible Passes

Search period start: 18 September 2014 00:00
Search period end: 28 September 2014 00:00
Orbit: 773 x 776 km, 86.4° (Epoch: 17 September)

Date Brightness Start Highest point End Pass type
(mag) Time Alt. Az. Time Alt. Az. Time Alt. Az.
18 Sep 8.2 01:19:04 12° NE 01:19:04 12° NE 01:19:43 10° NE visible
18 Sep 7.0 02:59:29 32° N 02:59:29 32° N 03:02:11 10° N visible
18 Sep 7.7 04:39:54 12° NW 04:39:54 12° NW 04:40:46 10° NW visible
19 Sep 7.4 02:25:19 26° NNE 02:25:19 26° NNE 02:27:38 10° NNE visible
19 Sep 7.5 04:05:44 17° NW 04:05:44 17° NW 04:07:35 10° NNW visible
20 Sep 7.9 01:51:09 19° NE 01:51:09 19° NE 01:52:50 10° NNE visible
20 Sep 7.3 03:31:34 22° NNW 03:31:34 22° NNW 03:33:40 10° N visible
21 Sep 8.3 01:16:58 12° NE 01:16:58 12° NE 01:17:39 10° NE visible
21 Sep 7.4 02:57:23 24° N 02:57:23 24° N 02:59:26 10° N visible
22 Sep 7.7 02:23:12 22° N 02:23:12 22° N 02:24:59 10° N visible
22 Sep 7.8 04:03:36 12° NW 04:03:36 12° NW 04:04:24 10° NNW visible
23 Sep 8.0 01:49:00 17° NNE 01:49:00 17° NNE 01:50:19 10° NNE visible
23 Sep 7.7 03:29:24 16° NNW 03:29:24 16° NNW 03:30:44 10° NNW visible
24 Sep 8.3 01:14:47 12° NNE 01:14:47 12° NNE 01:15:21 10° NNE visible
24 Sep 7.8 02:55:12 18° NNW 02:55:12 18° NNW 02:56:38 10° N visible
25 Sep 7.9 02:20:59 18° N 02:20:59 18° N 02:22:17 10° N visible
26 Sep 8.2 01:46:46 15° NNE 01:46:46 15° NNE 01:47:43 10° NNE visible
26 Sep 8.0 03:27:11 12° NNW 03:27:11 12° NNW 03:27:41 10° NNW visible
27 Sep 8.4 01:12:33 12° NNE 01:12:33 12° NNE 01:12:54 10° NNE visible
27 Sep 8.0 02:52:58 14° NNW 02:52:58 14° NNW 02:53:45 10° N visible
